Weather History for KFDY - July, 2013

Change the Weather History Date:

Saturday, July 27, 2013

  Actual Average Record
Temperature  
Mean Temperature 68 °F -  
Max Temperature 77 °F 81 °F 99 °F (1955)
Min Temperature 57 °F 63 °F 47 °F (1962)
Cooling Degree Days 4    
Growing Degree Days 18 (Base 50)    
Moisture  
Dew Point 62 °F    
Average Humidity 87    
Maximum Humidity 100    
Minimum Humidity 52    
Precipitation  
Precipitation 0.89 in - - ()
Sea Level Pressure  
Sea Level Pressure 29.86 in    
Wind  
Wind Speed 9 mph (SSW)    
Max Wind Speed 20 mph    
Max Gust Speed 29 mph    
Visibility 6 miles    
Events Rain , Thunderstorm    
Averages and records for this station are not official NWS values.
T = Trace of Precipitation, MM = Missing Value Source: NWS Daily Summary

Daily Weather History Graph

Daily Weather History Graph

Search for Another Location

Airport or City:

Trip Planner

Search our weather history database for the weather conditions in past years. The results will help you decide how hot, cold, wet, or windy it might be!

Date:

Astronomy

Jul. 27, 2013 Rise Set
Actual Time 6:26 AM EDT 8:55 PM EDT
Civil Twilight 5:54 AM EDT 9:27 PM EDT
Nautical Twilight 5:15 AM EDT 10:05 PM EDT
Astronomical Twilight 4:31 AM EDT 10:49 PM EDT
Moon 11:38 PM EDT (7/27) 12:08 PM EDT (7/27)
Length of Visible Light 15h 32m
Length of Day
14h 29m
Waning Gibbous, 71% of the Moon is Illuminated
Jul 27
Waning Gibbous
Jul 29
Last Quarter
Aug 6
New
Aug 14
First Quarter
Aug 20
Full

Hourly Weather History & Observations

Time (EDT) Temp. Dew Point Humidity Pressure Visibility Wind Dir Wind Speed Gust Speed Precip Events Conditions
12:53 AM 66.9 °F 61.0 °F 81% 29.92 in 10.0 mi South 5.8 mph - N/A   Overcast
1:53 AM 66.0 °F 62.1 °F 87% 29.92 in 5.0 mi SW 9.2 mph - 0.02 in Rain Light Rain
2:45 AM 64.4 °F 62.6 °F 94% 29.93 in 2.0 mi West 3.5 mph - 0.06 in Rain Rain
2:53 AM 64.9 °F 63.0 °F 93% 29.90 in 3.0 mi Calm Calm - 0.07 in Rain Light Rain
3:26 AM 64.4 °F 62.6 °F 94% 29.92 in 2.5 mi South 4.6 mph - 0.01 in Rain Light Rain
3:34 AM 64.4 °F 62.6 °F 94% 29.92 in 4.0 mi South 6.9 mph - 0.01 in Rain Light Rain
3:53 AM 64.9 °F 62.1 °F 90% 29.89 in 8.0 mi South 6.9 mph - 0.01 in Rain Light Rain
4:45 AM 64.4 °F 60.8 °F 88% 29.91 in 6.0 mi SSW 9.2 mph - 0.01 in Rain Light Rain
4:53 AM 63.0 °F 61.0 °F 93% 29.88 in 5.0 mi South 9.2 mph - 0.02 in Rain Light Rain
5:12 AM 62.6 °F 62.6 °F 100% 29.91 in 2.5 mi South 6.9 mph - 0.05 in Rain Heavy Rain
5:28 AM 62.6 °F 62.6 °F 100% 29.91 in 3.0 mi South 8.1 mph - 0.09 in Rain Rain
5:49 AM 62.6 °F 62.6 °F 100% 29.90 in 3.0 mi South 9.2 mph - 0.15 in Rain Rain
5:53 AM 63.0 °F 62.1 °F 97% 29.88 in 3.0 mi South 9.2 mph - 0.16 in Rain Light Rain
6:08 AM 62.6 °F 62.6 °F 100% 29.90 in 4.0 mi South 8.1 mph - 0.04 in Rain Rain
6:27 AM 62.6 °F 62.6 °F 100% 29.90 in 2.5 mi SSE 10.4 mph - 0.11 in Rain Rain
6:39 AM 62.6 °F 62.6 °F 100% 29.90 in 4.0 mi SSE 11.5 mph - 0.14 in Rain Rain
6:53 AM 63.0 °F 62.1 °F 97% 29.88 in 4.0 mi SSE 10.4 mph - 0.16 in Rain Light Rain
7:14 AM 62.6 °F 62.6 °F 100% 29.90 in 5.0 mi SSE 8.1 mph - 0.00 in Rain Light Rain
7:53 AM 63.0 °F 62.1 °F 97% 29.88 in 6.0 mi South 10.4 mph - 0.00 in   Overcast
8:53 AM 64.0 °F 62.1 °F 93% 29.87 in 9.0 mi South 9.2 mph - 0.01 in   Overcast
9:17 AM 64.4 °F 62.6 °F 94% 29.89 in 9.0 mi South 9.2 mph - N/A   Overcast
9:53 AM 64.0 °F 62.1 °F 93% 29.86 in 4.0 mi South 11.5 mph - 0.00 in   Overcast
10:05 AM 64.4 °F 62.6 °F 94% 29.88 in 2.0 mi South 11.5 mph - 0.02 in Rain Light Rain
10:16 AM 64.4 °F 62.6 °F 94% 29.88 in 5.0 mi South 10.4 mph - 0.03 in Rain Light Rain
10:53 AM 64.0 °F 62.1 °F 93% 29.86 in 3.0 mi South 10.4 mph - 0.03 in   Overcast
11:03 AM 64.4 °F 62.6 °F 94% 29.87 in 2.5 mi South 10.4 mph - N/A   Overcast
11:23 AM 64.4 °F 62.6 °F 94% 29.87 in 0.8 mi South 6.9 mph - 0.16 in Rain Heavy Rain
11:36 AM 64.4 °F 62.6 °F 94% 29.87 in 2.0 mi South 10.4 mph - 0.23 in Rain Light Rain
11:45 AM 64.4 °F 62.6 °F 94% 29.86 in 4.0 mi South 10.4 mph - 0.24 in Rain Light Rain
11:50 AM 64.4 °F 62.6 °F 94% 29.87 in 1.5 mi South 10.4 mph - 0.31 in Rain Rain
11:53 AM 64.0 °F 63.0 °F 96% 29.85 in 1.0 mi South 8.1 mph - 0.34 in Rain Heavy Rain
12:11 PM 64.4 °F 64.4 °F 100% 29.86 in 3.0 mi South 10.4 mph - 0.06 in Rain Light Rain
12:18 PM 66.2 °F 64.4 °F 94% 29.86 in 4.0 mi South 13.8 mph - 0.06 in Rain Light Rain
12:53 PM 66.9 °F 64.0 °F 90% 29.83 in 10.0 mi South 10.4 mph - 0.06 in   Overcast
1:53 PM 68.0 °F 64.0 °F 87% 29.81 in 10.0 mi SSW 11.5 mph 18.4 mph N/A   Overcast
2:53 PM 73.0 °F 66.0 °F 79% 29.79 in 10.0 mi SSW 16.1 mph 23.0 mph N/A   Mostly Cloudy
3:05 PM 73.4 °F 64.4 °F 73% 29.80 in 10.0 mi SSW 15.0 mph 21.9 mph N/A   Overcast
3:36 PM 73.4 °F 64.4 °F 73% 29.80 in 10.0 mi SSW 13.8 mph - N/A   Scattered Clouds
3:53 PM 73.9 °F 64.9 °F 73% 29.76 in 10.0 mi South 12.7 mph - N/A   Scattered Clouds
4:17 PM 71.6 °F 62.6 °F 73% 29.79 in 10.0 mi WSW 9.2 mph 19.6 mph N/A Thunderstorm Overcast
4:29 PM 75.2 °F 64.4 °F 69% 29.78 in 10.0 mi SW 9.2 mph - N/A Thunderstorm Overcast
4:38 PM 75.2 °F 62.6 °F 65% 29.78 in 10.0 mi WSW 15.0 mph - N/A   Mostly Cloudy
4:53 PM 77.0 °F 59.0 °F 54% 29.76 in 10.0 mi WSW 19.6 mph - N/A   Mostly Cloudy
5:53 PM 75.9 °F 57.0 °F 52% 29.76 in 10.0 mi WSW 18.4 mph 23.0 mph N/A   Clear
6:53 PM 72.0 °F 57.9 °F 61% 29.78 in 10.0 mi West 12.7 mph 23.0 mph N/A   Clear
7:53 PM 68.0 °F 59.0 °F 73% 29.80 in 9.0 mi WNW 17.3 mph 28.8 mph 0.01 in Rain Light Rain
8:53 PM 66.0 °F 59.0 °F 78% 29.84 in 10.0 mi NW 10.4 mph - 0.00 in   Overcast
9:53 PM 63.0 °F 55.0 °F 75% 29.86 in 10.0 mi NW 10.4 mph - N/A   Mostly Cloudy
10:53 PM 60.1 °F 54.0 °F 80% 29.88 in 10.0 mi WNW 6.9 mph - N/A   Partly Cloudy
11:53 PM 57.9 °F 53.1 °F 84% 29.89 in 10.0 mi WNW 5.8 mph - N/A   Scattered Clouds